Wind_Speed
21 21 20 19 16 16 15 14 14 15 16 17 17 18 18 17 17 17 17 18 18 17 17 17 17 17 16 14 12 11 10 9 11 13 13 14 14 13 12 11 9 7 7 7 8 9 9 8 8 8 9 10 11 9 8 10 11 11 10 8 8 9
22 21 20 19 17 16 16 15 15 16 16 17 18 18 18 18 18 18 18 18 19 18 17 17 17 17 15 14 11 10 10 8 9 11 13 13 13 13 12 11 9 7 6 5 6 6 7 7 7 7 7 7 8 5 5 9 9 9 9 7 7 8
21 21 20 19 18 17 16 16 16 17 17 18 20 19 19 20 19 19 20 19 19 18 17 16 16 16 14 13 10 9 9 8 8 10 11 12 12 13 12 11 10 8 6 4 4 4 5 5 6 6 5 5 5 5 5 8 8 7 8 6 7 8
20 20 19 19 19 18 17 16 16 18 19 19 20 19 19 19 18 20 21 20 19 17 16 15 15 15 13 12 11 10 9 8 8 8 9 10 11 12 12 12 11 10 7 5 4 4 4 5 5 4 3 4 5 5 7 8 6 6 6 5 6 7
21 20 19 19 19 19 18 17 17 18 19 19 20 19 19 19 19 20 20 20 19 17 15 15 15 14 12 12 12 10 9 9 8 8 8 7 8 9 11 13 12 11 10 6 5 6 5 5 6 5 4 5 4 4 7 7 6 6 6 4 6 7
22 21 21 19 18 19 18 18 18 18 19 18 18 18 17 18 19 19 19 19 19 18 16 14 14 13 12 12 12 11 9 9 9 9 8 7 6 7 7 9 10 11 10 7 7 8 6 6 7 6 6 6 4 5 7 6 5 6 6 5 7 7
23 21 20 19 18 19 19 18 18 18 18 16 16 16 14 15 17 17 18 19 18 17 15 13 12 12 13 13 12 12 10 10 9 9 8 8 7 7 7 6 7 8 8 8 8 8 7 6 8 8 8 6 5 6 6 6 5 6 5 4 6 7
23 22 22 20 18 20 19 17 17 17 16 15 14 13 11 12 15 16 18 18 16 15 14 12 11 12 12 12 12 12 12 12 11 9 9 8 7 7 8 7 7 7 7 7 7 7 7 7 8 8 8 7 6 7 7 6 5 5 4 4 5 6
24 23 23 20 18 20 19 17 17 17 17 16 14 13 11 10 12 15 16 16 15 14 14 12 11 12 12 11 11 11 11 12 12 10 9 8 7 7 7 7 6 6 6 7 6 7 7 7 8 8 7 7 6 7 6 6 6 6 5 4 3 3
21 20 20 18 18 20 18 17 17 17 17 16 15 14 12 10 11 13 13 14 14 14 14 12 12 12 11 10 9 9 8 9 11 10 10 9 8 7 7 6 6 6 5 6 6 7 8 7 8 8 7 6 6 6 6 6 7 7 7 6 4 3
18 18 18 17 18 18 18 17 17 17 17 16 15 14 13 12 13 13 13 14 15 14 13 12 12 12 10 9 8 8 7 7 9 10 9 9 9 8 7 7 7 7 6 7 7 7 8 8 8 8 8 7 7 7 5 6 7 7 7 5 4 4
17 17 17 15 17 18 18 18 18 18 18 17 16 15 15 15 15 15 14 15 14 14 13 12 12 12 10 9 8 8 7 7 7 9 10 9 8 7 7 7 7 7 7 8 7 7 8 8 8 8 8 8 8 7 6 6 7 6 7 4 2 4
17 17 16 16 17 18 18 19 18 18 18 16 15 15 15 16 16 15 15 15 14 14 13 12 12 12 11 10 9 8 7 7 8 8 10 10 8 7 7 7 7 7 7 7 8 9 9 8 8 8 8 8 7 7 7 6 6 6 7 5 4 4
16 18 19 19 18 18 18 19 18 17 16 15 15 15 16 16 16 16 15 15 14 14 14 13 12 11 11 10 10 9 8 8 8 8 8 9 8 7 7 7 7 7 7 7 8 9 8 8 8 8 9 9 7 7 7 7 7 7 7 7 7 6
19 20 20 20 19 18 18 18 18 17 16 15 15 17 17 16 16 16 16 14 14 14 14 13 13 12 11 11 10 10 9 9 9 8 7 7 7 7 7 7 7 8 9 8 9 9 8 9 10 9 9 9 8 8 8 9 10 8 8 9 8 7
21 21 20 20 21 19 18 19 18 17 17 15 16 18 18 17 17 16 16 15 15 15 14 14 14 12 11 10 9 9 10 10 9 7 7 7 7 7 7 7 7 8 8 9 10 11 9 10 11 9 8 7 7 7 8 9 9 8 9 9 9 9
21 21 21 21 22 20 19 19 18 17 16 15 16 18 18 18 17 17 16 16 17 16 15 15 14 13 12 11 10 9 10 10 9 8 6 6 7 7 7 7 8 8 8 8 11 12 11 11 10 8 7 6 6 6 6 6 7 7 8 9 9 10
22 21 21 23 23 21 19 19 19 17 16 16 17 17 17 17 17 17 16 17 17 16 15 14 14 13 13 12 11 10 9 9 9 8 7 6 7 8 8 8 8 8 8 9 9 11 10 10 10 9 7 6 7 7 6 6 6 6 7 9 10 9
25 23 23 25 25 22 20 21 20 18 17 17 17 17 17 15 15 16 16 17 16 16 15 13 13 13 12 12 12 11 10 10 10 9 8 7 7 8 9 9 8 8 9 10 10 10 10 10 10 9 8 7 7 7 6 6 6 6 7 8 9 8
27 25 24 25 26 24 22 21 21 20 19 17 17 18 17 14 13 13 14 16 15 15 14 13 12 12 12 12 12 11 10 10 10 8 8 7 7 8 9 9 8 8 10 11 10 10 10 9 9 9 9 8 7 6 6 5 5 6 7 7 8 8
28 27 26 26 28 26 22 22 22 20 18 18 17 17 17 15 13 12 14 15 14 13 12 11 11 11 11 11 11 10 10 10 9 8 7 7 7 7 8 9 8 8 9 10 11 11 11 10 9 10 10 9 7 6 5 4 5 6 6 7 8 9
29 29 28 27 29 26 22 22 21 19 17 17 17 17 17 15 14 14 14 14 13 12 11 11 11 10 10 9 9 9 10 10 9 9 8 8 7 8 9 10 9 9 9 10 11 12 13 11 8 8 9 9 7 6 5 4 5 5 5 6 7 8
27 27 26 26 27 24 22 22 21 18 17 16 17 17 16 15 15 14 14 13 12 11 10 10 9 9 9 8 9 9 10 10 10 9 9 8 8 9 11 11 10 10 10 10 10 11 13 10 7 8 9 8 8 7 5 5 4 4 5 6 6 7
23 23 24 26 26 22 22 23 21 19 18 17 17 18 17 16 15 14 14 13 12 11 9 9 8 8 8 8 9 9 10 11 11 10 9 9 9 9 11 13 11 10 10 10 10 11 12 10 8 10 8 6 7 7 5 6 6 5 6 6 6 6
23 23 25 27 25 23 24 23 22 21 20 19 18 18 18 16 16 15 14 13 11 10 9 9 8 8 8 7 8 9 9 10 10 10 10 9 10 10 12 13 12 11 11 10 10 11 12 11 9 10 9 6 6 5 5 9 8 5 6 5 5 5
23 23 27 28 25 24 25 23 23 23 21 20 19 18 17 16 16 15 13 12 11 10 10 9 8 8 7 7 7 8 8 8 8 9 9 9 10 10 11 12 12 11 10 9 9 9 11 11 9 9 9 7 5 5 7 11 10 8 8 6 6 6
24 22 25 28 26 25 25 24 24 22 20 20 18 18 17 15 15 14 13 13 11 10 10 9 9 8 7 7 7 7 8 8 8 8 9 9 9 9 9 10 12 12 10 9 9 7 8 9 9 9 9 7 5 5 8 10 10 9 9 7 7 7
24 22 25 28 27 26 26 25 23 21 20 20 19 17 16 15 15 14 14 13 11 11 10 10 10 9 9 9 9 8 8 8 8 8 8 8 8 9 9 10 12 13 12 11 9 8 8 9 9 8 9 8 4 4 7 7 7 8 8 9 9 8
23 22 25 29 28 26 26 25 23 22 20 20 18 16 16 16 16 15 14 13 12 12 12 11 10 10 9 9 9 9 8 8 8 8 8 8 8 9 10 11 12 13 13 12 10 9 8 9 9 8 8 8 6 6 8 7 7 8 8 9 9 10
23 22 25 28 28 26 25 25 24 23 20 19 19 18 17 17 16 15 15 14 13 12 12 10 8 8 8 8 8 9 8 9 8 8 8 8 8 9 10 11 12 11 12 13 10 9 9 9 9 8 7 8 9 9 8 8 9 9 8 8 9 10
22 23 25 29 29 26 25 25 25 23 19 18 19 19 19 20 19 18 17 16 14 13 11 10 9 9 8 8 9 9 9 9 9 9 9 8 8 9 10 11 12 12 12 11 10 9 9 9 10 9 8 9 10 10 9 9 10 10 9 10 11 12
23 24 25 28 30 27 26 27 26 23 20 19 20 21 21 22 21 20 19 17 15 13 12 11 10 9 9 9 9 9 9 9 9 9 9 8 8 8 9 10 11 12 11 10 10 10 10 9 10 9 8 10 10 10 11 8 8 10 9 9 13 13
24 25 25 26 28 28 27 27 26 23 20 19 20 21 21 20 20 19 18 18 16 14 13 12 11 10 10 9 9 9 9 9 9 9 9 9 9 8 8 9 10 11 10 9 10 10 10 10 10 9 9 10 9 9 10 9 9 11 9 9 13 14
24 25 26 26 27 28 26 25 25 22 21 20 21 20 20 20 20 18 17 17 15 13 12 12 12 11 11 11 10 9 9 9 9 9 10 10 10 9 8 8 9 9 9 9 10 11 10 9 10 10 10 10 9 8 8 9 9 10 9 10 13 13
24 24 24 25 27 26 25 25 26 25 23 22 22 21 21 22 21 19 17 17 15 13 12 12 11 11 12 11 11 10 9 9 9 9 9 9 10 10 9 9 8 9 9 9 9 10 10 9 9 10 10 10 9 8 7 7 8 9 9 9 10 12
22 23 24 26 27 26 26 27 27 27 26 25 24 23 23 24 23 20 18 16 14 13 12 12 12 12 12 11 11 11 9 9 9 9 9 9 9 10 10 9 9 9 9 8 8 9 8 8 8 9 9 9 8 7 8 8 8 8 8 8 9 10
23 24 25 26 25 26 26 26 26 26 25 24 23 23 24 25 24 21 19 16 15 14 13 12 12 12 12 12 12 11 10 9 9 9 10 10 9 9 9 9 9 9 8 7 8 8 8 7 7 8 9 9 9 8 9 9 9 9 9 10 11 12
Wind_Direction
180 180 179 178 175 168 162 158 160 164 164 164 165 168 170 167 166 162 162 161 157 158 158 157 154 151 150 152 159 171 182 198 204 194 189 194 193 187 185 187 187 177 156 140 133 127 122 123 123 116 116 111 93 83 96 98 91 90 91 103 126 128
183 181 183 181 177 170 162 161 164 164 164 169 171 172 172 168 167 166 164 164 163 162 161 159 155 151 151 151 157 172 183 192 199 198 201 206 205 199 196 197 199 194 174 151 137 125 123 130 132 130 125 103 86 96 107 90 83 83 84 93 120 125
187 182 182 182 181 177 167 166 168 167 169 176 175 175 176 170 170 170 168 169 166 164 161 159 154 152 152 150 153 162 168 177 185 192 202 209 212 211 210 209 211 210 196 173 156 134 133 141 142 149 131 104 111 127 105 91 92 88 88 94 102 113
189 183 181 182 181 178 171 168 173 177 177 179 178 178 180 171 171 175 170 169 167 164 159 155 153 149 147 146 150 155 155 165 174 181 191 201 212 216 217 218 218 220 215 196 185 168 157 160 160 170 144 125 139 129 105 100 103 101 103 102 95 105
188 183 181 179 175 176 173 171 180 184 180 181 180 182 183 172 176 182 171 167 166 162 158 157 153 144 142 145 149 151 154 162 167 172 173 179 203 212 217 223 221 224 225 204 198 202 186 179 178 185 167 149 149 122 112 113 116 115 114 100 87 96
186 182 184 178 172 175 174 177 184 183 180 183 181 184 187 177 180 183 170 167 168 163 159 157 147 140 143 147 150 152 159 166 167 170 167 166 186 197 206 223 224 226 225 202 202 218 212 196 188 185 173 162 154 130 118 118 114 112 115 89 78 90
185 181 182 176 170 175 176 182 187 181 178 181 181 184 188 181 179 179 172 171 168 160 155 149 144 148 149 150 156 158 162 167 168 170 171 172 179 181 175 186 202 206 205 194 204 218 216 205 193 184 176 168 154 139 127 122 110 108 111 75 63 75
186 179 175 172 171 177 179 181 186 182 176 179 180 181 185 180 174 174 173 170 163 154 150 148 151 157 155 156 161 160 162 165 167 169 172 173 175 179 174 170 172 175 180 185 201 203 195 200 194 183 176 172 162 149 138 131 119 117 118 80 62 53
184 180 174 172 174 179 179 179 184 182 177 179 179 177 179 171 167 169 165 162 158 154 154 155 158 161 160 162 160 155 160 161 160 162 167 169 176 183 179 170 156 156 167 169 183 184 181 192 187 177 172 174 169 150 139 134 125 126 129 118 101 51
179 176 172 173 177 179 179 178 180 181 180 179 177 179 178 167 162 162 157 160 161 157 159 160 163 165 164 164 153 149 157 156 152 154 161 166 174 177 172 163 144 142 155 159 170 172 174 181 176 172 171 173 170 153 145 140 134 134 130 133 137 98
177 175 176 179 181 180 178 179 178 179 183 179 178 182 181 173 168 166 163 162 160 159 163 166 169 169 165 163 153 153 160 157 154 155 161 164 165 164 161 158 147 145 152 159 166 164 166 170 170 174 172 174 176 164 158 147 143 140 134 149 156 123
180 182 182 181 183 182 180 183 181 181 184 181 179 183 182 178 174 173 169 164 163 165 168 173 176 171 165 164 162 164 167 168 171 169 167 165 162 161 160 160 156 155 156 156 161 160 159 161 165 172 173 178 183 174 170 160 151 145 141 163 183 151
182 184 183 181 184 183 181 183 182 184 184 181 182 182 181 177 174 175 171 168 172 175 176 180 181 175 171 170 172 172 172 180 187 182 172 163 160 162 165 168 167 166 163 154 158 159 152 155 162 168 177 179 179 180 180 166 155 152 147 156 178 172
184 186 185 185 183 181 185 185 183 186 184 183 184 181 181 177 174 174 173 173 178 183 184 185 184 181 177 177 181 179 178 188 192 186 170 156 155 161 169 173 174 178 175 156 154 158 151 155 160 166 180 179 177 184 178 170 165 160 159 163 170 166
186 189 188 187 184 182 188 187 185 188 186 186 184 181 181 176 174 175 177 179 180 184 187 188 187 184 183 184 187 185 184 192 194 186 171 161 162 169 176 175 176 184 183 168 156 157 159 169 173 174 179 179 184 186 177 180 175 166 174 174 166 160
189 187 189 189 188 184 187 188 189 192 188 186 183 181 181 175 176 179 180 183 182 182 185 189 189 187 189 187 184 186 190 196 195 190 188 182 177 181 188 187 186 188 188 183 175 171 172 178 180 175 172 177 186 187 183 181 171 167 182 178 169 171
197 191 191 190 189 184 186 192 193 194 190 185 182 181 182 179 179 180 179 183 182 181 183 188 190 190 193 190 189 193 198 200 196 196 199 190 184 189 195 197 195 191 185 185 185 183 178 178 180 174 171 173 170 174 177 166 161 174 186 182 181 183
200 195 195 193 191 183 186 194 195 196 191 185 181 179 181 182 182 182 180 181 182 183 185 189 192 194 197 197 201 204 206 204 201 203 198 191 195 195 195 200 202 197 186 178 179 182 178 179 182 174 165 159 151 155 161 161 169 181 185 187 190 187
200 196 195 194 190 184 187 193 194 194 191 185 181 181 181 180 182 184 185 186 187 190 192 194 195 197 199 201 206 209 210 206 204 205 196 195 204 202 200 201 204 199 188 181 179 180 178 178 178 165 152 148 148 154 162 175 177 178 189 192 194 191
204 201 197 193 189 186 188 193 193 190 189 185 182 185 184 180 182 185 189 192 193 195 197 200 200 199 202 206 209 210 210 205 201 201 196 197 203 206 204 200 204 201 191 187 182 178 171 165 161 152 149 148 148 155 163 177 174 175 194 196 197 195
204 203 199 194 191 187 186 192 192 188 186 184 183 187 187 184 183 185 190 193 195 196 200 205 204 203 207 211 210 206 209 206 197 194 196 195 198 204 199 194 200 199 192 188 179 171 161 154 154 148 147 145 140 145 149 157 165 175 191 192 193 194
200 201 199 195 193 188 187 191 190 187 185 183 185 187 188 188 188 190 193 192 194 197 203 210 208 207 207 207 206 202 209 207 192 189 193 189 195 202 197 192 195 194 189 183 178 173 162 156 165 157 145 143 138 136 139 146 153 160 175 178 185 193
196 196 194 195 195 189 188 188 186 185 183 182 187 187 187 192 194 195 194 192 195 199 205 209 208 206 203 204 204 200 207 205 189 187 189 186 195 201 199 196 193 192 189 180 175 175 167 162 174 167 155 160 156 144 143 151 156 162 169 176 185 192
194 193 193 196 195 191 189 186 184 184 183 184 189 191 191 195 196 194 193 194 198 202 203 203 201 201 200 204 201 197 202 199 189 187 186 187 195 201 202 198 191 191 191 182 174 177 176 170 171 167 167 177 166 164 171 160 161 165 163 177 191 194
196 194 197 198 194 191 189 186 186 185 184 187 190 193 194 193 192 190 192 196 198 198 194 194 197 195 196 199 194 190 192 191 188 186 187 191 195 201 202 196 193 192 191 187 182 187 186 176 171 172 177 177 166 182 192 166 159 151 145 156 173 189
200 197 201 199 193 192 191 187 188 187 186 188 189 190 191 189 189 189 190 192 190 187 187 190 192 190 191 191 186 183 181 184 186 185 191 195 195 200 197 195 198 193 188 190 190 197 194 180 178 186 191 187 178 189 184 173 169 154 142 147 162 177
201 197 200 199 192 193 194 191 191 189 187 188 186 186 188 184 184 186 186 183 180 180 184 186 185 186 188 187 183 182 179 179 183 187 193 192 191 193 189 195 202 190 184 191 189 195 200 190 189 200 203 198 199 198 184 183 176 159 152 156 169 173
200 196 199 198 192 193 195 194 191 189 188 189 186 184 183 179 179 181 179 176 174 176 179 182 186 187 188 190 182 177 178 177 182 187 187 185 186 187 185 194 201 193 186 188 187 189 198 197 195 209 211 197 195 190 182 189 183 170 169 162 167 177
198 197 198 196 191 192 194 192 189 188 189 190 187 183 180 177 176 175 172 171 170 173 180 183 186 186 187 192 182 173 177 178 182 183 179 182 186 188 190 195 198 198 192 187 186 187 195 201 199 208 211 194 184 181 180 192 189 179 176 164 163 177
199 198 196 194 191 191 192 190 187 187 188 187 183 180 177 174 174 171 169 169 168 173 183 184 180 180 181 183 179 175 178 181 184 181 175 180 189 192 196 198 197 201 199 191 188 189 192 199 199 203 205 197 196 195 192 194 189 182 177 168 160 168
198 195 193 193 192 192 191 189 187 186 186 183 179 177 175 174 172 169 166 167 168 171 179 182 181 185 183 181 182 179 178 183 183 178 175 177 187 193 197 200 199 202 202 193 191 194 193 196 198 201 203 204 206 207 210 201 186 185 184 171 158 158
194 192 191 192 193 191 189 188 186 185 184 182 180 177 176 175 171 167 167 167 169 170 174 179 183 186 185 184 187 182 177 181 180 177 178 180 186 189 192 198 199 200 199 194 193 193 194 200 200 201 207 210 212 213 221 221 193 192 197 176 159 156
194 193 190 190 191 189 187 186 185 184 182 181 181 179 177 174 168 167 168 167 166 168 170 174 176 178 180 180 184 184 181 181 179 179 180 183 189 188 190 197 200 198 191 189 196 192 194 206 203 199 204 211 222 225 219 216 200 196 197 171 154 153
195 194 189 187 187 185 183 181 180 180 180 179 180 178 177 173 168 168 168 165 164 166 168 168 168 172 177 181 184 182 181 183 182 182 183 186 192 193 196 202 199 191 180 182 194 189 190 207 208 202 201 202 216 225 212 201 194 189 182 170 159 155
197 194 187 183 182 181 178 175 176 177 177 176 176 176 177 174 169 167 166 164 162 163 164 162 165 172 177 183 185 176 173 181 183 186 188 187 192 195 198 204 198 185 179 186 191 186 187 201 208 206 204 204 205 209 208 198 191 188 183 179 169 161
200 196 187 179 177 176 176 176 177 177 174 174 174 174 176 173 166 163 163 163 161 160 160 161 166 172 173 178 180 169 167 179 184 190 194 192 193 193 194 202 202 188 185 189 186 182 188 197 204 204 204 208 202 200 207 200 194 196 194 186 174 169
202 194 182 174 170 172 176 179 179 178 175 174 175 174 174 170 162 160 161 162 160 158 158 160 162 164 167 169 167 164 170 179 187 195 199 197 194 190 189 196 197 189 188 189 182 183 188 193 203 202 200 201 196 199 208 200 190 192 191 187 184 182
Height
1529 1531 1532 1534 1535 1537 1538 1540 1541 1543 1544 1545 1546 1547 1547 1549 1550 1551 1551 1552 1553 1553 1554 1554 1555 1557 1558 1559 1560 1561 1561 1561 1562 1562 1563 1563 1564 1566 1567 1567 1568 1569 1570 1571 1572 1573 1573 1574 1574 1574 1574 1574 1574 1575 1576 1576 1575 1575 1575 1574 1573 1573
1529 1530 1531 1533 1535 1536 1538 1540 1541 1543 1544 1545 1546 1546 1547 1548 1549 1550 1551 1552 1552 1553 1553 1554 1555 1557 1558 1559 1560 1561 1561 1561 1562 1562 1563 1564 1565 1566 1567 1568 1569 1570 1571 1572 1573 1574 1574 1575 1575 1575 1575 1575 1576 1577 1577 1577 1577 1577 1577 1575 1574 1574
1528 1530 1531 1533 1535 1536 1538 1540 1541 1543 1544 1545 1545 1546 1546 1547 1548 1549 1550 1551 1552 1553 1553 1553 1555 1557 1558 1559 1560 1560 1561 1561 1562 1562 1563 1564 1565 1566 1568 1569 1569 1570 1571 1572 1573 1574 1575 1576 1576 1576 1576 1576 1577 1578 1578 1579 1579 1579 1578 1576 1575 1574
1527 1529 1531 1532 1534 1536 1538 1540 1541 1542 1543 1544 1544 1545 1545 1545 1547 1548 1549 1550 1551 1553 1553 1553 1555 1557 1558 1559 1560 1561 1561 1562 1562 1563 1564 1565 1565 1566 1568 1569 1569 1570 1571 1573 1574 1575 1576 1576 1576 1577 1577 1577 1578 1578 1578 1580 1580 1579 1579 1577 1575 1575
1527 1529 1530 1532 1534 1536 1538 1540 1540 1541 1542 1543 1543 1544 1543 1544 1547 1547 1549 1551 1551 1552 1553 1554 1556 1558 1559 1560 1560 1561 1562 1563 1563 1563 1564 1565 1566 1567 1568 1568 1569 1570 1571 1573 1574 1575 1576 1576 1577 1577 1577 1578 1578 1578 1579 1580 1579 1579 1579 1577 1576 1575
1526 1527 1529 1531 1534 1536 1538 1539 1540 1541 1542 1542 1543 1543 1543 1544 1547 1549 1551 1551 1551 1552 1552 1554 1556 1558 1559 1560 1561 1562 1563 1563 1564 1564 1565 1566 1566 1567 1568 1568 1569 1570 1571 1573 1574 1575 1576 1576 1577 1578 1578 1578 1578 1578 1579 1579 1579 1578 1578 1577 1576 1576
1524 1526 1528 1530 1533 1535 1537 1539 1540 1541 1542 1543 1543 1543 1543 1545 1547 1550 1552 1552 1552 1552 1552 1554 1556 1557 1559 1560 1561 1562 1563 1563 1564 1565 1565 1566 1566 1567 1568 1569 1569 1570 1572 1573 1574 1574 1575 1576 1577 1578 1578 1578 1578 1579 1579 1580 1579 1579 1579 1578 1578 1577
1522 1525 1527 1530 1532 1534 1537 1538 1540 1541 1542 1543 1543 1544 1544 1545 1547 1550 1552 1552 1552 1552 1553 1555 1556 1557 1558 1560 1561 1562 1563 1563 1564 1565 1565 1566 1566 1567 1567 1569 1570 1571 1572 1573 1573 1574 1575 1576 1576 1577 1578 1578 1578 1579 1579 1579 1579 1579 1579 1579 1578 1578
1522 1524 1527 1530 1532 1534 1537 1538 1540 1541 1542 1543 1544 1545 1545 1546 1547 1550 1551 1552 1552 1553 1554 1555 1556 1557 1559 1560 1561 1561 1562 1563 1564 1564 1565 1565 1566 1567 1567 1568 1570 1571 1571 1572 1573 1574 1575 1576 1576 1577 1578 1578 1578 1578 1579 1579 1579 1580 1579 1579 1579 1579
1523 1526 1528 1531 1533 1535 1537 1538 1540 1542 1542 1543 1544 1545 1546 1547 1548 1550 1551 1551 1552 1553 1554 1555 1557 1558 1559 1559 1560 1561 1562 1563 1564 1564 1565 1565 1566 1567 1567 1568 1569 1571 1571 1572 1573 1573 1575 1576 1576 1578 1578 1578 1578 1578 1578 1579 1580 1580 1580 1579 1579 1579
1524 1527 1530 1532 1534 1535 1537 1538 1540 1541 1542 1543 1544 1545 1546 1547 1549 1550 1550 1551 1552 1553 1555 1556 1557 1558 1559 1560 1560 1561 1562 1563 1564 1564 1565 1565 1566 1567 1567 1568 1569 1570 1571 1572 1573 1573 1574 1576 1577 1577 1578 1578 1578 1578 1578 1579 1580 1580 1580 1580 1579 1579
1526 1527 1530 1532 1534 1535 1537 1538 1540 1541 1542 1543 1544 1545 1546 1547 1548 1549 1550 1551 1553 1554 1555 1556 1557 1558 1559 1560 1561 1561 1562 1563 1563 1564 1564 1565 1566 1567 1567 1568 1568 1569 1570 1571 1572 1573 1574 1575 1576 1577 1577 1578 1578 1578 1578 1579 1579 1580 1580 1580 1579 1579
1525 1527 1529 1532 1533 1535 1537 1538 1539 1540 1541 1543 1544 1545 1546 1547 1548 1550 1551 1552 1553 1554 1555 1556 1557 1558 1559 1560 1561 1561 1562 1563 1563 1563 1564 1564 1566 1566 1567 1568 1568 1569 1569 1570 1571 1572 1573 1575 1576 1576 1577 1577 1578 1578 1578 1579 1579 1580 1580 1581 1580 1579
1524 1526 1529 1531 1533 1535 1536 1538 1539 1540 1542 1543 1544 1545 1546 1547 1549 1550 1551 1552 1553 1554 1555 1556 1557 1558 1559 1560 1561 1561 1562 1562 1563 1563 1563 1564 1565 1566 1567 1567 1568 1568 1569 1570 1571 1572 1573 1574 1575 1575 1575 1576 1577 1577 1577 1578 1579 1579 1580 1580 1580 1579
1525 1526 1528 1531 1533 1535 1536 1537 1539 1540 1541 1543 1544 1545 1546 1548 1549 1550 1551 1552 1553 1554 1555 1556 1557 1558 1559 1560 1561 1561 1562 1562 1562 1563 1563 1564 1565 1566 1567 1567 1568 1568 1568 1569 1571 1572 1573 1573 1573 1574 1574 1575 1575 1575 1576 1577 1577 1578 1579 1578 1579 1579
1524 1526 1528 1530 1532 1534 1535 1537 1538 1540 1541 1542 1544 1545 1546 1548 1549 1550 1551 1552 1553 1554 1555 1556 1557 1558 1559 1560 1561 1561 1562 1562 1562 1563 1564 1565 1565 1566 1566 1567 1567 1568 1568 1569 1570 1571 1572 1572 1572 1573 1574 1574 1574 1574 1574 1574 1575 1576 1577 1578 1578 1578
1524 1525 1527 1529 1531 1533 1535 1536 1538 1539 1541 1542 1543 1544 1546 1548 1549 1550 1551 1552 1553 1554 1555 1556 1557 1557 1558 1559 1560 1561 1561 1562 1563 1563 1564 1565 1565 1565 1566 1566 1567 1567 1568 1568 1569 1570 1571 1571 1572 1573 1573 1574 1574 1573 1573 1574 1575 1576 1576 1577 1577 1577
1523 1524 1526 1527 1530 1532 1534 1536 1537 1539 1541 1542 1543 1544 1546 1548 1549 1550 1551 1552 1553 1554 1554 1555 1556 1557 1558 1559 1559 1560 1561 1562 1562 1563 1564 1564 1565 1565 1565 1566 1566 1567 1567 1568 1569 1570 1571 1571 1572 1572 1573 1574 1574 1574 1574 1574 1575 1576 1576 1577 1577 1577
1522 1523 1524 1526 1529 1532 1533 1534 1536 1538 1540 1541 1543 1544 1546 1548 1549 1550 1551 1552 1552 1553 1554 1555 1556 1557 1557 1558 1558 1559 1560 1561 1562 1562 1563 1564 1564 1565 1565 1565 1566 1567 1567 1568 1569 1570 1570 1571 1571 1572 1573 1574 1574 1575 1575 1575 1575 1576 1577 1576 1576 1576
1519 1521 1523 1525 1527 1530 1532 1533 1535 1537 1540 1541 1542 1543 1545 1547 1549 1550 1551 1551 1552 1553 1554 1555 1555 1556 1557 1557 1558 1559 1560 1560 1561 1562 1563 1564 1564 1564 1565 1565 1566 1566 1567 1568 1569 1569 1570 1571 1571 1572 1573 1574 1574 1574 1574 1574 1575 1576 1576 1576 1576 1576
1517 1519 1521 1523 1526 1528 1530 1532 1534 1536 1539 1540 1542 1543 1545 1547 1548 1549 1550 1550 1551 1552 1553 1554 1555 1556 1556 1556 1557 1558 1559 1560 1561 1562 1563 1564 1564 1564 1564 1565 1566 1566 1567 1568 1568 1569 1570 1571 1571 1572 1573 1573 1574 1574 1574 1575 1575 1576 1576 1576 1576 1576
1515 1518 1520 1522 1524 1527 1529 1531 1533 1535 1537 1539 1541 1542 1544 1546 1547 1548 1549 1550 1551 1552 1553 1554 1555 1555 1556 1556 1557 1558 1558 1559 1560 1562 1563 1563 1564 1564 1564 1565 1566 1566 1567 1567 1568 1569 1570 1571 1571 1571 1572 1574 1574 1574 1574 1574 1575 1575 1576 1576 1576 1576
1514 1516 1519 1521 1523 1526 1529 1531 1533 1535 1537 1539 1540 1541 1543 1545 1546 1547 1548 1549 1550 1551 1552 1553 1554 1555 1556 1556 1556 1557 1558 1558 1560 1561 1562 1563 1564 1564 1564 1565 1565 1566 1566 1567 1568 1569 1570 1571 1572 1572 1573 1573 1574 1574 1574 1574 1575 1575 1575 1576 1576 1576
1514 1516 1518 1520 1523 1526 1528 1530 1532 1534 1536 1538 1539 1540 1542 1544 1545 1547 1548 1549 1550 1551 1552 1553 1554 1555 1555 1556 1556 1556 1557 1557 1559 1560 1561 1563 1563 1563 1564 1564 1565 1565 1566 1567 1568 1569 1569 1570 1571 1572 1572 1572 1573 1574 1574 1574 1574 1574 1575 1576 1576 1576
1514 1516 1518 1520 1522 1524 1526 1529 1531 1533 1535 1536 1538 1540 1541 1543 1545 1546 1547 1548 1549 1550 1551 1553 1554 1554 1555 1555 1556 1556 1556 1557 1558 1559 1560 1561 1562 1562 1563 1563 1564 1565 1566 1567 1567 1568 1568 1569 1570 1571 1571 1571 1572 1573 1573 1573 1574 1574 1575 1576 1576 1577
1514 1516 1517 1519 1521 1523 1525 1528 1530 1531 1533 1535 1537 1539 1541 1542 1544 1545 1547 1548 1549 1550 1551 1552 1553 1554 1554 1555 1555 1555 1556 1557 1557 1558 1559 1560 1561 1562 1562 1563 1563 1564 1565 1566 1567 1568 1568 1569 1570 1570 1570 1570 1571 1572 1572 1572 1573 1574 1575 1576 1576 1577
1514 1515 1516 1518 1520 1522 1525 1527 1529 1531 1533 1535 1537 1539 1540 1542 1543 1545 1546 1547 1548 1550 1551 1552 1553 1554 1554 1554 1555 1555 1556 1556 1557 1558 1558 1559 1560 1561 1562 1562 1563 1564 1565 1566 1567 1568 1568 1568 1569 1569 1569 1570 1570 1570 1571 1571 1571 1572 1574 1575 1576 1576
1513 1514 1515 1516 1518 1520 1523 1525 1528 1531 1533 1535 1537 1538 1540 1542 1543 1544 1545 1547 1548 1549 1550 1551 1552 1553 1553 1553 1554 1555 1555 1556 1556 1557 1558 1559 1560 1560 1561 1562 1562 1563 1564 1565 1566 1567 1568 1568 1569 1569 1568 1569 1570 1570 1570 1570 1570 1571 1572 1574 1575 1576
1511 1512 1513 1515 1517 1519 1522 1524 1527 1530 1532 1534 1536 1538 1539 1541 1543 1544 1545 1547 1548 1549 1550 1550 1551 1552 1552 1553 1553 1554 1555 1555 1556 1556 1557 1558 1559 1560 1560 1561 1561 1562 1563 1564 1565 1566 1567 1567 1568 1568 1568 1568 1569 1569 1569 1570 1570 1570 1571 1573 1574 1576
1509 1510 1512 1514 1517 1519 1521 1524 1527 1529 1531 1533 1535 1537 1539 1540 1542 1544 1545 1546 1547 1549 1549 1550 1550 1551 1552 1552 1552 1554 1555 1555 1555 1556 1557 1557 1558 1559 1560 1560 1561 1561 1562 1563 1564 1565 1565 1566 1567 1567 1567 1568 1568 1569 1569 1569 1569 1570 1571 1572 1574 1575
1506 1508 1510 1512 1516 1519 1521 1524 1527 1530 1532 1533 1535 1536 1538 1539 1541 1543 1544 1546 1547 1548 1549 1549 1550 1550 1551 1552 1552 1553 1554 1555 1555 1556 1556 1557 1558 1558 1559 1559 1560 1560 1561 1562 1563 1564 1565 1565 1566 1566 1567 1567 1567 1568 1568 1568 1569 1571 1571 1572 1573 1575
1505 1507 1509 1511 1514 1517 1520 1523 1527 1530 1532 1534 1535 1536 1538 1539 1541 1542 1544 1545 1547 1548 1548 1549 1549 1550 1550 1551 1552 1553 1554 1554 1555 1555 1556 1557 1557 1558 1558 1559 1559 1560 1560 1561 1562 1563 1564 1565 1565 1566 1567 1567 1567 1567 1568 1568 1570 1571 1571 1572 1573 1575
1504 1506 1508 1510 1513 1516 1519 1522 1526 1530 1532 1534 1536 1538 1539 1540 1542 1543 1544 1545 1546 1547 1548 1548 1549 1549 1550 1551 1552 1552 1553 1554 1554 1555 1556 1556 1557 1557 1558 1558 1559 1559 1559 1560 1561 1562 1564 1564 1564 1565 1566 1567 1567 1567 1568 1569 1569 1570 1571 1573 1573 1575
1503 1505 1507 1509 1512 1515 1518 1521 1525 1529 1532 1534 1536 1538 1540 1541 1542 1543 1544 1545 1546 1547 1548 1548 1548 1549 1550 1550 1551 1552 1553 1553 1554 1555 1556 1556 1556 1557 1557 1558 1558 1559 1559 1560 1561 1561 1563 1563 1563 1564 1565 1566 1566 1567 1567 1568 1569 1570 1571 1573 1573 1574
1503 1504 1506 1509 1511 1514 1518 1521 1524 1526 1529 1532 1535 1537 1539 1540 1542 1543 1544 1545 1547 1548 1548 1548 1549 1549 1549 1550 1550 1551 1552 1553 1553 1554 1555 1556 1556 1556 1557 1557 1558 1558 1559 1560 1560 1561 1562 1562 1562 1563 1564 1564 1565 1565 1566 1568 1569 1570 1570 1571 1572 1574
1503 1504 1505 1507 1510 1513 1517 1520 1523 1524 1527 1529 1532 1535 1537 1539 1540 1542 1544 1545 1546 1547 1548 1548 1548 1548 1549 1549 1550 1550 1551 1552 1553 1554 1555 1555 1556 1556 1557 1557 1557 1558 1558 1559 1559 1560 1561 1561 1562 1562 1563 1564 1564 1565 1566 1567 1569 1570 1570 1571 1572 1574
1500 1501 1503 1506 1511 1515 1517 1520 1523 1525 1527 1529 1531 1534 1535 1537 1539 1541 1543 1544 1545 1546 1547 1547 1548 1548 1548 1548 1549 1550 1551 1552 1553 1554 1554 1555 1555 1556 1556 1556 1557 1557 1558 1558 1559 1560 1560 1561 1561 1561 1562 1563 1564 1565 1566 1567 1568 1569 1570 1571 1571 1573